Wind_Speed
22 27 29 29 27 30 34 39 39 30 38 38 34 31 27 24 20 14 19 15 14 8 15 12 9 4 6 1 5 2 8 11 14 9 5 7 9 7 3 7 4 6 2 6 24
22 26 29 30 30 30 30 39 41 40 37 40 36 32 29 26 20 20 16 20 19 13 14 16 14 9 2 1 1 9 12 15 5 3 3 7 9 9 6 9 7 8 7 19 24
26 24 28 32 31 28 28 33 43 37 39 42 38 35 32 25 17 15 28 19 21 16 15 17 14 12 9 3 2 2 12 5 3 1 2 5 9 7 10 10 9 13 14 19 22
28 27 27 35 33 29 32 30 38 50 40 42 40 37 33 29 14 19 31 32 25 19 17 18 10 10 10 12 7 3 5 1 3 1 2 6 6 8 12 3 7 8 19 22 20
29 31 31 36 38 31 33 31 34 34 44 44 43 39 36 22 22 4 29 34 23 22 21 18 15 9 13 10 11 5 4 1 2 1 3 0 8 12 12 6 0 10 19 20 20
31 33 33 37 42 35 33 33 32 47 43 45 45 42 31 26 30 5 22 25 24 27 24 21 12 14 9 8 10 10 8 7 0 3 1 4 6 2 12 11 7 13 16 17 20
28 31 31 35 40 39 36 35 29 44 47 46 45 45 22 17 23 13 28 27 25 26 20 17 6 10 9 8 7 9 13 9 6 3 3 3 7 11 4 10 11 13 14 16 20
23 25 26 33 36 37 33 30 31 34 48 48 47 32 9 20 18 23 27 24 18 14 13 6 5 3 2 9 10 10 6 8 11 7 2 3 11 7 7 9 14 14 13 14 18
14 18 22 23 29 32 26 34 37 36 50 47 35 13 8 15 24 27 32 25 17 12 9 6 7 3 3 10 9 7 7 13 9 11 4 8 7 3 2 8 11 12 13 13 14
20 13 13 27 27 31 32 31 40 40 46 41 21 7 5 22 26 29 28 26 13 13 5 2 3 4 6 12 10 8 8 14 16 10 10 11 17 14 6 6 10 12 13 13 15
18 18 18 21 21 18 19 23 9 16 35 12 16 7 18 32 28 25 30 23 11 5 7 3 5 12 17 21 16 16 14 11 9 8 7 17 18 20 20 11 9 10 13 14 16
15 15 13 14 17 28 15 16 28 13 30 6 27 8 23 42 19 25 34 15 11 10 9 5 7 14 14 13 11 14 15 14 8 5 5 11 18 16 18 21 17 14 13 15 13
12 14 13 11 13 13 13 22 41 43 13 6 20 15 19 32 25 27 30 14 19 12 13 10 13 6 16 14 13 12 14 11 7 4 8 9 16 21 22 20 20 17 14 14 13
10 7 8 8 6 6 8 26 43 43 9 5 13 7 10 13 18 32 26 12 11 17 9 3 9 13 15 17 16 8 2 3 8 4 6 7 9 12 19 23 20 21 19 18 16
11 10 12 10 3 5 9 40 43 16 13 14 7 7 8 19 28 25 25 4 18 17 10 6 14 17 14 13 17 6 9 8 5 2 4 8 5 7 4 14 19 20 21 20 17
14 14 11 8 15 10 15 43 20 11 10 8 10 12 16 13 26 17 5 2 6 18 6 9 14 14 10 13 8 17 13 10 5 2 5 13 11 11 13 13 14 18 20 20 18
15 14 12 6 6 12 16 25 9 12 11 9 7 12 21 13 17 31 20 11 11 12 11 9 13 4 16 13 8 1 11 3 2 4 6 3 12 16 9 11 9 13 16 17 17
15 15 15 12 10 5 7 9 14 11 11 7 13 20 9 23 20 24 21 16 14 13 13 13 6 13 19 8 13 12 6 5 7 6 3 2 9 4 9 7 14 11 9 8 15
15 11 7 9 10 17 2 5 10 18 13 14 21 20 6 12 12 18 25 25 15 20 12 14 6 12 17 6 20 7 5 1 2 2 1 6 8 10 12 14 8 11 7 8 7
10 8 5 9 11 14 0 6 6 15 21 27 16 11 9 9 19 20 23 22 21 19 13 13 7 10 6 9 7 12 13 4 4 4 6 6 7 8 7 6 8 8 10 8 8
7 4 3 15 10 2 3 3 4 20 27 23 27 13 14 20 24 30 33 19 23 21 12 18 7 9 8 11 14 5 13 6 4 4 3 4 5 3 3 2 3 2 3 3 4
4 3 8 15 3 2 3 4 6 23 19 10 20 21 29 28 17 14 22 14 25 21 16 4 6 11 20 3 9 15 14 15 6 6 8 3 9 7 5 4 2 3 3 0 1
3 2 2 1 4 4 2 3 9 24 24 23 17 12 23 21 12 15 19 13 26 24 21 11 7 9 7 7 7 22 17 19 11 1 6 6 8 12 7 3 5 4 6 1 2
3 3 2 2 2 3 2 4 5 17 14 18 17 21 22 18 11 15 15 11 25 26 11 7 7 10 12 7 14 14 21 17 18 6 12 14 22 7 6 4 3 2 3 5 5
0 2 0 5 5 6 2 3 8 10 3 12 11 21 26 13 11 10 13 7 17 18 8 8 6 9 7 10 17 17 19 21 22 28 15 21 22 18 13 10 10 9 11 8 9
3 3 1 1 5 8 3 4 7 7 13 17 19 27 22 21 14 24 17 20 19 18 15 11 5 9 2 4 12 11 16 22 28 29 22 22 23 11 12 11 11 12 12 11 11
2 1 2 3 6 7 5 1 9 14 7 6 19 25 21 20 11 16 13 10 13 18 18 12 5 4 4 6 6 1 23 23 25 25 25 22 31 8 10 8 8 11 12 13 9
Wind_Direction
242 241 234 230 230 233 240 246 251 260 227 221 217 208 202 204 196 186 209 214 213 203 181 166 183 194 167 269 249 310 235 228 230 236 232 153 189 194 77 133 188 160 358 100 151
243 237 236 231 226 231 240 241 248 255 224 218 212 202 197 196 188 206 223 217 208 195 186 187 190 184 103 152 329 220 227 231 249 252 247 179 216 175 193 169 175 161 117 131 152
249 241 234 231 225 229 235 233 245 245 222 214 208 198 192 181 196 224 217 209 199 196 201 198 191 197 195 104 334 324 235 209 118 16 314 193 210 179 231 206 196 188 155 157 162
251 253 236 230 223 225 230 226 233 233 227 209 203 191 184 174 207 209 204 211 195 183 198 191 182 188 195 188 168 138 260 243 123 119 251 191 212 206 231 49 352 173 161 164 178
252 252 242 230 222 225 227 222 226 247 214 203 200 184 170 197 207 162 198 195 190 189 193 187 177 200 196 188 167 198 179 156 82 81 211 346 226 226 225 215 24 137 158 173 184
250 248 242 232 221 220 221 217 224 234 208 197 197 177 170 200 206 242 180 178 184 191 198 196 190 185 196 184 192 183 170 202 118 323 93 233 222 216 232 184 179 162 177 180 186
245 242 237 230 213 223 219 212 222 235 215 191 190 174 184 187 187 188 169 177 181 186 189 194 191 177 164 139 137 163 170 185 188 204 194 250 219 225 221 175 188 188 188 187 191
237 225 226 220 218 229 219 211 225 230 196 186 184 175 184 191 182 167 171 165 167 160 166 152 138 84 300 133 160 161 203 185 186 193 233 175 253 206 194 201 208 202 197 192 196
207 223 227 235 228 222 214 222 224 219 189 178 163 186 155 161 176 174 171 161 148 118 103 111 80 148 306 165 153 201 182 208 175 194 178 217 240 165 154 236 227 210 207 197 206
228 242 225 218 220 217 219 218 223 194 180 169 174 145 182 186 171 174 174 160 140 114 69 177 119 180 201 194 182 149 200 202 207 181 204 206 235 240 195 223 240 243 210 215 209
207 211 246 245 217 197 229 207 202 180 174 174 155 153 151 162 154 178 169 149 124 159 172 201 172 200 186 197 175 179 193 202 216 141 197 222 237 242 242 213 233 248 243 221 224
208 214 213 234 234 224 254 206 221 169 167 160 171 143 171 151 160 168 160 161 156 176 136 146 205 184 198 206 180 188 199 224 182 166 225 245 247 243 244 241 246 243 241 236 231
204 206 192 219 249 242 224 245 174 158 163 180 177 175 169 165 165 168 176 174 165 147 187 193 165 219 190 190 178 193 199 199 192 198 248 288 271 250 240 240 241 234 243 251 238
198 206 193 192 259 221 243 206 164 170 154 185 158 182 203 173 166 165 191 172 186 169 176 215 160 172 177 184 182 171 201 110 128 182 250 175 278 248 226 225 222 222 223 230 236
206 205 201 208 243 187 262 172 164 189 185 148 140 138 178 189 138 177 175 201 181 168 156 155 168 166 189 169 181 116 112 97 98 104 15 211 252 250 304 227 226 220 220 219 210
207 204 195 202 238 233 256 156 162 180 193 152 145 172 168 176 156 143 124 345 189 150 69 127 169 172 171 144 122 128 112 73 59 24 247 233 218 263 242 237 243 241 227 226 210
206 199 205 196 261 243 266 154 192 194 150 161 158 152 161 169 152 157 162 167 156 153 154 140 166 145 144 110 125 153 144 108 188 197 235 21 222 251 268 280 252 252 239 223 221
190 187 205 218 229 244 15 210 205 124 157 138 146 148 160 170 167 161 148 165 191 205 149 162 191 180 177 175 157 177 198 177 207 210 240 87 233 233 272 291 272 248 274 285 221
176 176 187 221 234 166 109 234 174 142 142 136 141 156 142 177 153 151 176 185 179 194 170 184 141 165 182 140 147 171 194 80 83 69 293 215 252 251 246 259 259 245 249 245 251
155 169 152 174 162 78 243 284 174 162 136 143 148 161 147 189 140 165 174 182 174 200 181 171 123 182 155 137 194 180 149 147 217 207 240 235 249 250 259 273 230 232 240 265 261
167 173 126 148 103 96 232 254 240 162 148 162 155 148 167 170 163 170 182 170 183 182 186 165 124 153 150 199 176 179 183 213 191 232 243 284 250 79 275 330 301 186 165 300 324
170 152 149 145 113 241 239 177 223 166 175 175 168 159 168 170 162 162 180 159 173 165 171 123 112 151 185 112 215 206 185 187 192 193 234 324 256 146 143 156 171 136 149 203 255
108 93 88 286 203 225 219 212 197 169 174 158 160 172 163 166 150 179 168 173 164 179 169 159 127 121 152 264 210 210 206 208 227 347 200 195 262 183 207 184 216 229 313 125 106
139 123 63 272 263 240 231 170 163 201 166 165 161 142 147 166 114 179 146 164 172 182 139 117 155 168 186 183 155 195 208 208 208 207 209 217 242 189 187 202 157 287 299 313 323
102 159 225 170 208 195 348 168 175 179 323 159 151 158 149 141 138 143 131 142 171 176 149 164 155 198 191 175 176 195 200 194 207 226 211 234 240 236 233 251 276 298 297 274 274
154 174 145 55 127 204 186 235 178 153 171 180 164 165 160 163 179 177 153 159 169 185 177 178 166 173 92 142 182 194 193 201 212 225 234 252 267 246 259 266 261 274 282 285 282
141 96 276 148 173 174 192 181 175 199 241 185 171 159 171 180 106 144 140 124 147 172 176 164 119 124 174 146 112 355 212 205 217 224 223 237 243 231 244 255 253 270 279 285 292
Height
735 738 740 743 743 751 755 758 762 765 769 774 778 782 786 791 794 797 798 798 800 800 804 804 808 811 810 810 806 802 808 807 805 803 798 797 803 801 802 808 808 811 811 816 829
730 733 734 736 742 745 746 750 756 761 764 770 774 779 784 790 793 792 793 795 797 798 801 802 804 809 812 813 808 804 807 801 793 791 796 797 799 805 807 807 810 815 818 823 829
723 727 729 730 734 736 739 741 747 757 760 765 769 774 781 788 792 782 788 792 794 796 800 802 803 805 808 815 817 809 803 795 801 801 800 800 802 800 805 808 799 809 815 825 829
714 716 721 724 727 731 736 737 744 750 754 759 765 769 778 785 785 773 780 787 793 797 800 800 804 806 807 808 812 819 812 803 808 809 807 804 798 805 803 800 797 796 811 821 827
708 709 714 717 719 724 730 730 737 741 746 755 760 765 774 778 768 771 774 782 789 793 795 795 801 804 805 800 808 813 816 813 811 809 807 807 806 803 800 797 802 800 813 819 823
702 702 703 706 712 719 721 726 727 734 742 750 754 762 768 771 769 770 773 780 785 790 791 793 794 799 799 801 804 806 810 813 813 813 810 809 804 808 795 795 802 803 811 816 820
695 697 697 700 707 710 715 718 722 731 736 744 748 757 761 760 766 771 773 779 784 788 790 792 794 798 796 805 802 802 813 811 812 815 815 809 811 809 794 794 801 803 806 812 817
689 691 695 696 699 702 703 705 716 718 727 738 746 754 754 758 763 767 772 779 786 788 791 795 795 798 799 795 800 806 808 817 805 809 811 811 813 792 791 799 798 799 801 808 812
684 684 688 689 692 696 700 706 706 713 724 735 744 749 747 753 759 764 768 775 783 789 793 795 797 804 803 798 807 804 816 815 807 807 812 810 812 794 798 799 796 794 797 803 807
680 679 684 685 686 692 696 701 702 709 721 732 738 750 751 744 756 762 769 774 780 788 797 799 801 804 801 792 801 813 806 796 797 805 808 808 805 793 794 800 797 791 792 798 802
675 677 677 680 681 686 692 698 702 691 703 701 712 720 731 741 755 762 766 774 783 789 791 800 798 794 788 781 776 783 789 792 793 801 805 801 800 795 789 793 796 795 790 792 796
669 671 673 675 679 683 684 678 677 675 696 711 716 725 728 731 747 755 764 768 779 785 794 799 792 781 782 776 779 782 790 793 790 803 808 797 794 790 786 782 785 789 789 790 793
666 671 671 674 675 674 676 672 674 684 699 715 711 723 725 726 735 747 754 753 767 783 784 780 772 783 777 779 784 787 791 794 802 804 806 805 794 789 780 779 779 781 784 786 787
661 660 664 669 676 669 670 666 670 680 695 705 711 724 727 722 739 744 751 752 756 769 778 779 779 780 780 782 780 802 797 796 806 811 809 801 796 762 759 766 771 772 776 780 783
654 659 664 664 668 666 663 660 668 673 681 712 717 720 719 718 719 743 747 754 755 754 767 780 779 782 789 783 780 795 798 807 815 818 822 805 815 768 757 766 762 761 766 765 770
654 658 661 663 663 663 659 654 668 669 659 705 707 714 717 717 717 740 752 755 754 760 766 768 769 775 778 785 789 797 808 817 822 825 836 806 806 774 762 761 759 754 754 759 761
652 654 656 656 660 659 658 651 651 636 690 704 702 701 705 717 718 724 742 753 755 768 772 778 777 776 775 794 801 802 806 831 836 837 814 802 794 776 754 750 754 752 750 752 755
652 655 657 661 661 661 664 641 624 643 666 685 690 704 712 710 718 719 736 747 742 738 756 768 793 778 773 774 795 806 795 797 811 806 791 815 798 770 756 757 754 751 752 749 751
649 653 657 658 662 660 673 639 617 639 657 670 694 696 712 702 706 714 725 727 731 728 739 754 769 773 772 776 782 806 809 795 807 834 815 787 775 762 756 753 756 753 756 757 756
648 653 656 660 657 658 658 637 632 621 640 656 660 672 697 707 696 705 721 719 726 729 726 740 778 777 783 781 785 782 791 810 805 816 808 773 778 768 755 749 747 750 751 752 752
648 649 652 652 655 665 645 641 641 622 626 632 643 672 682 682 676 692 699 704 712 726 729 731 751 786 787 785 789 795 791 789 783 793 793 785 762 745 751 753 748 745 749 750 752
644 645 652 652 658 660 646 646 640 621 626 618 635 641 653 669 679 684 698 687 704 720 731 734 746 776 781 780 774 778 785 783 786 798 784 788 771 746 748 748 747 747 748 750 754
642 647 647 649 657 653 650 642 637 621 622 624 631 636 644 659 678 677 689 690 700 715 714 728 750 777 795 785 777 774 775 777 774 787 795 795 760 734 741 745 746 747 747 747 752
639 639 653 656 657 648 642 639 635 625 617 618 622 630 641 658 663 677 686 697 702 708 719 722 737 742 750 745 758 778 774 775 778 789 773 772 742 743 745 744 743 746 747 746 748
643 645 652 647 645 642 648 639 630 632 629 617 625 629 628 660 676 682 695 708 707 710 715 716 742 735 731 734 747 756 763 770 774 757 766 741 746 744 736 737 738 740 743 745 748
643 646 647 646 644 645 648 638 633 638 626 617 615 624 629 648 653 666 672 684 693 709 714 713 739 735 755 745 743 751 755 760 758 751 760 744 742 736 735 734 738 740 741 742 743
644 643 642 646 647 641 638 640 637 629 627 616 617 623 631 638 646 661 670 681 688 700 707 719 736 746 750 750 756 767 745 743 748 748 745 751 720 738 735 737 740 741 740 740 740